sat.trackr.live / text

‹ back to catalog

STARLINK-36189

NORAD 67010 · 2025-293H

PAYLOAD ACTIVE UNKNOWN

§ Identity

Operator
Country
US
Launch date
2025-12-10
Launch site
AFWTR
Launch vehicle
Mass (kg)
RCS (m²)

Purposes: comms

External: N2YO · Heavens-Above · Gunter

§ Orbital elements

Epoch: 2026-09-20T13:42:53.624736Z

Period
96.11 min
Inclination
70.0020°
Eccentricity
0.0004519
Mean motion
14.98358108 rev/d
Perigee alt
568.8 km
Apogee alt
575.1 km
Semi-major
6,950.1 km
B*
6.6522e-4
RAAN
322.9142°
Arg perigee
271.0638°
Mean anomaly
89.0003°
Rev number
4,408

§ Raw data

STARLINK-361891 67010U 25293H   26263.57145399  .00007860  00000+0  66522-3 0  99912 67010  70.0020 322.9142 0004519 271.0638  89.0003 14.98358108 44087

JSON: /api/v1/satellites/67010 · /tle

For live sub-satellite position, see the globe view (requires WebGL).

§ Visibility from observer

Set your observer location to see the next 7 days of passes ≥ 10°. The values pass through the URL so the page stays shareable.

No JS? Fill the form by hand. The geolocation button needs JavaScript.